TimeCDT,TemperatureF,Dew PointF,Humidity,Sea Level PressureIn,VisibilityMPH,Wind Direction,Wind SpeedMPH,Gust SpeedMPH,PrecipitationIn,Events,Conditions,WindDirDegrees,DateUTC
12:53 AM,59.0,37.9,46,29.79,10.0,NNE,10.4,-,N/A,,Clear,20,2014-04-01 05:53:00
1:53 AM,62.1,35.1,37,29.81,10.0,NNE,19.6,-,N/A,,Clear,30,2014-04-01 06:53:00
2:53 AM,62.1,30.0,30,29.83,10.0,NE,19.6,27.6,N/A,,Clear,50,2014-04-01 07:53:00
3:53 AM,55.9,28.9,36,29.83,10.0,NNE,19.6,-,N/A,,Clear,30,2014-04-01 08:53:00
4:53 AM,55.0,28.9,37,29.83,10.0,NE,19.6,-,N/A,,Clear,50,2014-04-01 09:53:00
5:53 AM,53.1,28.9,40,29.86,10.0,NE,19.6,27.6,N/A,,Clear,50,2014-04-01 10:53:00
6:53 AM,51.1,28.9,43,29.85,10.0,NE,16.1,-,N/A,,Clear,50,2014-04-01 11:53:00
7:32 AM,51.8,28.4,41,29.90,10.0,NE,18.4,-,N/A,,Mostly Cloudy,50,2014-04-01 12:32:00
7:53 AM,53.1,30.0,41,29.88,10.0,NE,19.6,24.2,N/A,,Overcast,50,2014-04-01 12:53:00
8:53 AM,55.0,32.0,42,29.90,10.0,NE,15.0,-,N/A,,Overcast,50,2014-04-01 13:53:00
9:53 AM,57.0,34.0,42,29.91,10.0,NE,21.9,-,N/A,,Overcast,50,2014-04-01 14:53:00
10:53 AM,59.0,39.9,49,29.91,10.0,ENE,19.6,-,N/A,,Overcast,70,2014-04-01 15:53:00
11:53 AM,61.0,46.0,58,29.91,10.0,ENE,13.8,-,N/A,,Overcast,70,2014-04-01 16:53:00
12:53 PM,66.0,50.0,56,29.88,10.0,NE,8.1,-,N/A,,Mostly Cloudy,50,2014-04-01 17:53:00
1:09 PM,66.2,51.8,60,29.90,10.0,East,5.8,-,N/A,,Scattered Clouds,90,2014-04-01 18:09:00
1:53 PM,69.1,52.0,54,29.85,10.0,Variable,4.6,-,N/A,,Clear,0,2014-04-01 18:53:00
2:53 PM,72.0,53.1,51,29.81,10.0,Variable,3.5,-,N/A,,Clear,0,2014-04-01 19:53:00
3:53 PM,77.0,55.0,47,29.78,10.0,Variable,5.8,-,N/A,,Clear,0,2014-04-01 20:53:00
4:53 PM,78.1,55.0,45,29.75,10.0,ESE,4.6,-,N/A,,Clear,110,2014-04-01 21:53:00
5:53 PM,79.0,55.0,44,29.74,10.0,Calm,Calm,-,N/A,,Clear,0,2014-04-01 22:53:00
6:53 PM,75.0,55.9,51,29.73,10.0,ENE,8.1,-,N/A,,Clear,60,2014-04-01 23:53:00
7:53 PM,71.1,55.0,57,29.71,10.0,East,10.4,-,N/A,,Clear,80,2014-04-02 00:53:00
8:53 PM,68.0,55.9,65,29.71,10.0,East,11.5,-,N/A,,Partly Cloudy,100,2014-04-02 01:53:00
9:53 PM,66.9,57.0,70,29.72,10.0,East,9.2,-,N/A,,Clear,100,2014-04-02 02:53:00
10:53 PM,64.9,57.0,75,29.71,10.0,ESE,8.1,-,N/A,,Clear,120,2014-04-02 03:53:00
11:53 PM,64.9,57.0,75,29.70,10.0,SE,9.2,-,N/A,,Clear,130,2014-04-02 04:53:00